Terminal Aerodrome Forecast
Issued by NWS Dodge City, KS

Home | Current Version | Previous Version | Graphics & Text | Print | Product List | Glossary Off
Versions: 1 2 3 4 5 6 7 8 9 10 11 12 13 14 15 16 17 18 19 20 21 22 23 24 25 26 27 28 29 30 31 32 33 34 35 36 37 38 39 40 41 42 43 44 45

000
FTUS43 KDDC 280540
TAFDDC
TAF
KDDC 280540Z 2806/2906 18012KT P6SM SCT080
     FM281400 19014G22KT P6SM FEW030 SCT200
     FM281800 35012G20KT P6SM SCT080
      TEMPO 2822/2902 TSRA OVC040CB=

USA.gov is the U.S. government's official web portal to all federal, state and local government web resources and services.